Regional Weather Roundup
Issued by NWS New Orleans/Baton Rouge, LA

Home | Current Version | Previous Version | Graphics & Text | Print | Product List | Glossary On
Versions: 1 2 3 4 5 6 7 8 9 10 11 12 13 14 15 16 17 18 19 20 21 22 23 24 25 26 27 28 29 30 31 32 33 34 35 36 37 38 39 40 41 42 43 44 45 46 47 48 49 50
792
ASUS44 KLIX 310610
RWRLIX
NEW ORLEANS REGIONAL WEATHER ROUNDUP
NATIONAL WEATHER SERVICE NEW ORLEANS LA
100 AM CDT THU JUL 31 2014

NOTE: "FAIR" INDICATES FEW OR NO CLOUDS BELOW 12,000 FEET WITH NO
      SIGNIFICANT WEATHER AND/OR OBSTRUCTIONS TO VISIBILITY.
      SKY/WX - SKY CONDITION AND SIGNIFICANT WEATHER.
      TMP - AIR TEMPERATURE.     DP    - DEWPOINT TEMPERATURE.
      RH  - RELATIVE HUMIDITY.   PRES  - PRESSURE.
      HI  - HEAT INDEX.          WCI   - WIND CHILL INDEX.

*  THESE STATIONS ARE NOT NWS OR FAA STATIONS AND ARE NOT UNDER
   NWS QUALITY CONTROL.

LAZ038-040-048-061>063-065>067-069-310700-
SOUTHEAST LOUISIANA

CITY           SKY/WX    TMP DP  RH WIND       PRES   REMARKS
N.O. AUDUBON     N/A     77  62  59 MISG        N/A
6HR MIN TEMP:  77; 6HR MAX TEMP:  85;

N.O. INTL ARPT CLEAR     76  61  59 E5        30.01F
6HR MIN TEMP:  75; 6HR MAX TEMP:  84;

N.O. LAKEFRONT CLEAR     80  63  55 E10       30.02F
6HR MIN TEMP:  80; 6HR MAX TEMP:  84;

N.O. DOWNTOWN*   N/A     81  59  47 NE5       30.02F
6HR MIN TEMP:  81; 6HR MAX TEMP:  84;

SLIDELL        CLEAR     68  64  87 CALM      30.02S
6HR MIN TEMP:  68; 6HR MAX TEMP:  83;

BATON ROUGE    PTCLDY    70  64  81 CALM      30.02F
6HR MIN TEMP:  70; 6HR MAX TEMP:  84;

BOOTHVILLE     CLEAR     77  68  73 SE5       30.02S
6HR MIN TEMP:  76; 6HR MAX TEMP:  82;

BELLE CHASSE   CLEAR     69  64  84 CALM      30.01F
6HR MIN TEMP:  69; 6HR MAX TEMP:  84;

BOGALUSA*        N/A     68  64  85 CALM      30.05R
6HR MIN TEMP:  68; 6HR MAX TEMP:  83;

GALLIANO*      NOT AVBL
NEW ROADS*       N/A     70  67  90 NE3       30.02F
6HR MIN TEMP:  69; 6HR MAX TEMP:  82;

GONZALES*        N/A     69  68  99 CALM      30.01F
6HR MIN TEMP:  69; 6HR MAX TEMP:  84;

HAMMOND*       CLEAR     68  63  83 CALM      30.04S
HOUMA*         CLEAR     70  65  84 CALM      30.01F
6HR MIN TEMP:  69; 6HR MAX TEMP:  86;

PORT FOURCHON* MOCLDY    81  66  61 E5        30.03F

$$

MSZ070-080>082-310700-
SOUTHERN MISSISSIPPI

CITY           SKY/WX    TMP DP  RH WIND       PRES   REMARKS
MCCOMB         PTCLDY    70  62  76 CALM      30.04F
6HR MIN TEMP:  68; 6HR MAX TEMP:  83;

GULFPORT       CLEAR     72  62  71 N3        30.02R
6HR MIN TEMP:  71; 6HR MAX TEMP:  88;

BILOXI         CLEAR     73  63  72 NE3       30.02S
6HR MIN TEMP:  71; 6HR MAX TEMP:  82;

PASCAGOULA     CLEAR     64  63  96 CALM      30.02S
6HR MIN TEMP:  64; 6HR MAX TEMP:  82;


$$

COASTAL OBSERVATIONS
LAKE AND NEARSHORE STATIONS

STATION/POSITION TIME  TEMP    WIND        PRES    WAVE
                       AIR SEA DIR/SP/G            HT/PER
                 (UTC) (F)     (DEG/KT/KT) (MB)    (FT/S)
PASCAGOULA       0600   75      30/  6/  7 1015.8
WAVELAND YACHT   0600   77      70/  8/  9 1015.8
GRAND ISLE       0600   81 86  110/  2/  3 1017.0
SOUTHWEST PASS   0600   81 85   60/  5/  6 1016.7
NEW CANAL        0600   82 84   80/ 10/ 13 1016.7
SHELL BEACH      0600   81 81   70/ 11/ 12 1016.2

OFFSHORE STATIONS

STATION/POSITION TIME  TEMP    WIND        PRES    WAVE
                       AIR SEA DIR/SP/G            HT/PER
                 (UTC) (F)     (DEG/KT/KT) (MB)    (FT/S)
64 S DAUPHIN ISL 0504   81 85   40/  6/ 10 1016.3

$$




USA.gov is the U.S. government's official web portal to all federal, state and local government web resources and services.